Kissimmee, FL

4:39 PM EDT on October 19, 2019 (GMT -0400)
Kissimmee Municipal

Weather History for KISM - August, 2019

Change the Weather History Date:

Friday, August 23, 2019

  Actual Average Record
Temperature  
Mean Temperature 82 °F -  
Max Temperature 89 °F 91 °F 98 °F (1980)
Min Temperature 77 °F 72 °F 66 °F (1973)
Cooling Degree Days 18    
Growing Degree Days 32 (Base 50)    
Moisture  
Dew Point 76 °F    
Average Humidity 84    
Maximum Humidity 94    
Minimum Humidity 67    
Precipitation  
Precipitation 0.00 in - - ()
Sea Level Pressure  
Sea Level Pressure 30.02 in    
Wind  
Wind Speed 6 mph (NE)    
Max Wind Speed 14 mph    
Max Gust Speed -    
Visibility 8 miles    
Events Rain , Thunderstorm    
Averages and records for this station are not official NWS values.
T = Trace of Precipitation, MM = Missing Value Source: NWS Daily Summary

Daily Weather History Graph

Daily Weather History Graph

Search for Another Location

Airport or City:

Astronomy

Aug. 23, 2019 Rise Set
Actual Time 6:59 AM EDT 7:56 PM EDT
Civil Twilight 6:35 AM EDT 8:21 PM EDT
Nautical Twilight 6:06 AM EDT 8:49 PM EDT
Astronomical Twilight 5:37 AM EDT 9:19 PM EDT
Moon 12:21 AM EDT (8/23) 1:57 PM EDT (8/23)
Length of Visible Light 13h 45m
Length of Day
12h 57m
Waning Gibbous, 50% of the Moon is Illuminated
Aug 23
Waning Gibbous
Aug 30
New
Sep 5
First Quarter
Sep 14
Full
Sep 21
Last Quarter

Hourly Weather History & Observations

Time (EDT) Temp. Heat Index Dew Point Humidity Pressure Visibility Wind Dir Wind Speed Gust Speed Precip Events Conditions
12:56 AM 80.1 °F 85.4 °F 75.9 °F 87% 30.04 in 10.0 mi ENE 3.5 mph - N/A   Clear
1:56 AM 80.1 °F 85.4 °F 75.9 °F 87% 30.03 in 10.0 mi Calm Calm - N/A   Clear
2:56 AM 78.1 °F - 75.9 °F 93% 30.02 in 10.0 mi Calm Calm - N/A   Clear
3:56 AM 79.0 °F - 75.0 °F 88% 30.00 in 10.0 mi North 3.5 mph - N/A   Clear
4:56 AM 79.0 °F - 75.9 °F 90% 29.99 in 10.0 mi NE 4.6 mph - N/A   Clear
5:56 AM 79.0 °F - 75.9 °F 90% 30.01 in 10.0 mi North 4.6 mph - N/A   Clear
6:56 AM 79.0 °F - 75.9 °F 90% 30.02 in 10.0 mi NNE 3.5 mph - N/A   Clear
7:56 AM 81.0 °F 87.3 °F 75.9 °F 85% 30.03 in 10.0 mi North 4.6 mph - N/A   Clear
8:56 AM 82.9 °F 91.8 °F 77.0 °F 82% 30.04 in 10.0 mi NE 6.9 mph - N/A   Clear
9:56 AM 86.0 °F 96.0 °F 75.9 °F 72% 30.04 in 10.0 mi East 10.4 mph - N/A   Scattered Clouds
10:03 AM 86.0 °F 95.1 °F 75.2 °F 70% 30.04 in 10.0 mi East 11.5 mph - N/A   Mostly Cloudy
10:51 AM 82.4 °F 90.9 °F 77.0 °F 84% 30.05 in 1.8 mi East 13.8 mph - N/A Rain Rain
10:56 AM 79.0 °F - 75.9 °F 90% 30.05 in 1.0 mi ESE 12.7 mph - N/A Rain Light Rain
10:58 AM 78.8 °F - 75.2 °F 89% 30.05 in 0.8 mi ESE 11.5 mph - N/A   Mostly Cloudy
11:04 AM 78.8 °F - 75.2 °F 89% 30.05 in 1.2 mi East 8.1 mph - N/A   Mostly Cloudy
11:08 AM 80.6 °F 87.1 °F 77.0 °F 89% 30.05 in 4.0 mi NE 11.5 mph - N/A Rain Light Rain
11:56 AM 80.1 °F 85.8 °F 77.0 °F 90% 30.04 in 10.0 mi NE 4.6 mph - N/A Rain Light Rain
12:19 PM 77.0 °F - 73.4 °F 89% 30.05 in 1.8 mi ENE 8.1 mph - N/A Rain Heavy Rain
12:28 PM 77.0 °F - 73.4 °F 89% 30.04 in 2.5 mi North 4.6 mph - N/A Rain Heavy Rain
12:35 PM 77.0 °F - 75.2 °F 94% 30.03 in 7.0 mi NW 6.9 mph - N/A Rain Heavy Rain
12:56 PM 78.1 °F - 75.9 °F 93% 30.04 in 10.0 mi NNW 4.6 mph - N/A Rain , Thunderstorm Light Rain
1:05 PM 78.8 °F - 75.2 °F 89% 30.03 in 10.0 mi NNW 8.1 mph - N/A Rain Light Rain
1:15 PM 78.8 °F - 77.0 °F 94% 30.03 in 10.0 mi North 6.9 mph - N/A Thunderstorm Overcast
1:40 PM 78.8 °F - 77.0 °F 94% 30.01 in 10.0 mi North 3.5 mph - N/A Rain Light Rain
1:56 PM 80.1 °F 85.8 °F 77.0 °F 90% 30.02 in 10.0 mi North 6.9 mph - N/A   Mostly Cloudy
2:56 PM 84.9 °F 95.3 °F 77.0 °F 77% 30.00 in 10.0 mi NNE 6.9 mph - N/A   Mostly Cloudy
3:56 PM 88.0 °F 98.5 °F 75.9 °F 67% 29.99 in 10.0 mi NE 10.4 mph - N/A   Partly Cloudy
4:56 PM 88.0 °F 98.5 °F 75.9 °F 67% 29.96 in 10.0 mi ENE 13.8 mph - N/A   Mostly Cloudy
5:56 PM 88.0 °F 98.5 °F 75.9 °F 67% 29.97 in 10.0 mi ENE 11.5 mph - N/A   Partly Cloudy
6:56 PM 86.0 °F 95.1 °F 75.0 °F 70% 29.97 in 10.0 mi East 12.7 mph - N/A   Clear
7:56 PM 84.0 °F 92.6 °F 75.9 °F 76% 29.97 in 10.0 mi ENE 10.4 mph - N/A   Clear
8:56 PM 82.9 °F 90.8 °F 75.9 °F 79% 29.98 in 10.0 mi East 9.2 mph - N/A   Clear
10:56 PM 81.0 °F 87.3 °F 75.9 °F 85% 30.01 in 10.0 mi ENE 9.2 mph - N/A   Clear